Terminal Aerodrome Forecast
Issued by NWS

Home | Current Version | Previous Version | Text Only | Print | Product List | Glossary On
Versions: 1 2 3 4 5 6 7 8 9 10 11 12 13 14 15 16 17 18 19
000
FTUS46 KSGX 302336
TAFPSP
TAF
KPSP 302336Z 3100/3124 11012KT 6SM BLDU SCT005 SCT150
     FM310300 33009KT P6SM SCT200
     FM310700 VRB05KT P6SM SCT250
     FM311600 11008KT P6SM SCT200=

USA.gov is the U.S. government's official web portal to all federal, state and local government web resources and services.